Printer-friendly version

IAU Minor Planet Center

Minor Planet Center

MPEC 2000-P09: 1999 CL158

The following Minor Planet Electronic Circular may be linked-to from your own Web pages, but must not otherwise be redistributed electronically.


Read MPEC 2000-P08 Read MPEC 2000-P10


M.P.E.C. 2000-P09                                Issued 2000 Aug. 1, 17:38 UT

     The Minor Planet Electronic Circulars contain information on unusual
         minor planets and routine data on comets.  They are published
   on behalf of Commission 20 of the International Astronomical Union by the
          Minor Planet Center, Smithsonian Astrophysical Observatory,
                          Cambridge, MA 02138, U.S.A.

             Prepared using the Tamkin Foundation Computer Network

             BMARSDEN@CFA.HARVARD.EDU or GWILLIAMS@CFA.HARVARD.EDU
          URL http://cfa-www.harvard.edu/iau/mpc.html  ISSN 1523-6714

                                  1999 CL158

Observations:
     J99CF8L*1C1999 02 11.28169 08 19 46.66 +20 07 39.5          21.9 R      568
     J99CF8L 1C1999 02 11.32361 08 19 46.39 +20 07 40.3          21.9 R      568
     J99CF8L 1C1999 02 17.24705 08 19 13.42 +20 09 47.6          21.9 R      568
     J99CF8L 1C1999 02 17.29032 08 19 13.17 +20 09 48.5          21.9 R      568
     J99CF8L 1C1999 03 09.35113 08 17 39.28 +20 15 53.4          21.9 R      568
     J99CF8L 1C1999 03 09.37450 08 17 39.18 +20 15 53.9          21.9 R      568
     J99CF8L 1C1999 04 08.28404 08 16 32.90 +20 20 45.7          22.0 R      568
     J99CF8L 1C1999 04 09.29091 08 16 32.48 +20 20 49.6          22.0 R      568
     J99CF8L 1C2000 01 10.52249 08 31 35.05 +19 47 03.4          21.5 R      568
     J99CF8L 1C2000 01 10.55028 08 31 34.88 +19 47 04.1          21.5 R      568
     J99CF8L 1C2000 04 04.29125 08 25 03.46 +20 13 43.2          22.5 R      568
     J99CF8L 1C2000 04 04.36747 08 25 03.38 +20 13 43.6          22.5 R      568
     J99CF8L 1C2000 04 05.31890 08 25 02.38 +20 13 48.7          22.4 R      568

Observer details:
568 Mauna Kea.  Observers J. X. Luu, C. A. Trujillo, D. C. Jewitt, S. S.
    Sheppard, D. J. Tholen.  3.6-m Canada-France-Hawaii Telescope + CCD.

Orbital elements:
1999 CL158
Epoch 2000 Sept. 13.0 TT = JDT 2451800.5                Marsden
M  26.07525              (2000.0)            P               Q
n   0.00365089     Peri.  325.71111     +0.06604597     -0.98638029
a  41.7705166      Node   120.07448     +0.95005536     +0.01601604
e   0.2188935      Incl.   10.02470     +0.30501270     +0.16369913
P 270              H    7.0           G   0.15           U   5
Residuals in seconds of arc
990211 568  0.1+  0.2+    990309 568  0.1-  0.4-    000404 568  0.2-  0.3-
990211 568  0.3-  0.1+    990408 568  0.1+  0.0     000404 568  0.0   0.3-
990217 568  0.2+  0.1+    990409 568  0.1+  0.1+    000405 568  0.2-  0.4-
990217 568  0.0   0.0     000110 568  0.2+  0.6+
990309 568  0.0   0.5-    000110 568  0.2+  0.7+

Ephemeris:
1999 CL158               a,e,i = 41.77, 0.22, 10                 q = 32.627
Date    TT    R. A. (2000) Decl.     Delta      r     Elong.  Phase     V
2000 09 03    08 38.92   +19 30.9   34.922   34.088    33.8     0.9    22.5
2000 09 13    08 40.04   +19 27.5   34.819   34.092    43.2     1.2    22.5
2000 09 23    08 41.02   +19 24.6   34.695   34.096    52.7     1.3    22.5
2000 10 03    08 41.86   +19 22.3   34.553   34.100    62.3     1.5    22.6
2000 10 13    08 42.52   +19 20.7   34.398   34.104    72.0     1.6    22.6
2000 10 23    08 43.00   +19 19.8   34.235   34.108    81.9     1.7    22.5
2000 11 02    08 43.28   +19 19.6   34.067   34.112    91.8     1.7    22.5
2000 11 12    08 43.35   +19 20.3   33.900   34.116   101.8     1.6    22.5
2000 11 22    08 43.22   +19 21.7   33.739   34.119   111.9     1.5    22.5
2000 12 02    08 42.89   +19 23.8   33.589   34.123   122.1     1.4    22.5
2000 12 12    08 42.38   +19 26.7   33.456   34.127   132.4     1.2    22.5
2000 12 22    08 41.70   +19 30.1   33.343   34.131   142.7     1.0    22.4
2001 01 01    08 40.89   +19 33.9   33.255   34.135   153.1     0.7    22.4
2001 01 11    08 39.98   +19 38.1   33.195   34.139   163.5     0.5    22.4
2001 01 21    08 39.00   +19 42.4   33.164   34.143   173.9     0.2    22.3
2001 01 31    08 37.99   +19 46.7   33.165   34.147   175.4     0.1    22.3
2001 02 10    08 37.00   +19 50.9   33.196   34.151   165.2     0.4    22.4
2001 02 20    08 36.07   +19 54.8   33.257   34.155   154.9     0.7    22.4
2001 03 02    08 35.22   +19 58.2   33.346   34.159   144.6     1.0    22.4
2001 03 12    08 34.51   +20 01.1   33.459   34.163   134.4     1.2    22.5
2001 03 22    08 33.95   +20 03.4   33.594   34.167   124.4     1.4    22.5
2001 04 01    08 33.56   +20 05.1   33.746   34.170   114.4     1.5    22.5
2001 04 11    08 33.37   +20 06.0   33.910   34.174   104.5     1.6    22.5
2001 04 21    08 33.37   +20 06.1   34.081   34.178    94.7     1.7    22.5
2001 05 01    08 33.57   +20 05.6   34.255   34.182    85.0     1.7    22.6
2001 05 11    08 33.98   +20 04.3   34.426   34.186    75.4     1.6    22.6
2001 05 21    08 34.57   +20 02.4   34.590   34.190    65.9     1.5    22.6
2001 05 31    08 35.33   +19 59.8   34.743   34.194    56.5     1.4    22.6
2001 06 10    08 36.25   +19 56.7   34.880   34.198    47.2     1.2    22.6
2001 06 20    08 37.30   +19 53.1   34.999   34.202    37.9     1.0    22.5

Brian G. Marsden             (C) Copyright 2000 MPC           M.P.E.C. 2000-P09

Read MPEC 2000-P08 Read MPEC 2000-P10


Our Web policy. Index to the CBAT/MPC/ICQ pages.


Valid HTML 4.01!